C/2015 VL62 ( Lemmon-Yeung-PanSTARRS )

Japanese version
Home page
Updated on August 31, 2019

---------------------------------------------------------------------

* Profile

Discovery Date November 2 and December 18, 2015; January 23, 2016
Magnitude 20.7 mag, 19.1 mag, 19.8 mag
Discoverer R. G. Matheny and E. J. Christensen (Mount Lemmon), W. K. Y. Yeung (near Mayhill, NM, USA), Pan-STARRS 1 telescope (Haleakala)

* Pictures

* Orbital Elements

Epoch 2017 Sept. 4.0 TT = JDT 2458000.5
T 2017 Aug. 28.59757 TT                                 Williams
q   2.7203003            (2000.0)            P               Q
z  -0.0006723      Peri.  128.36385     +0.80634777     -0.53708639
 +/-0.0000003      Node    94.55068     -0.58984729     -0.69954023
e   1.0018289      Incl.  165.61387     -0.04339877     -0.47136152
From 1971 observations 2015 Nov. 2-2018 July 15, mean residual 0".5.

* Finding Charts

* Magnitudes Graph

        m1 = 7.7 + 5 log d + 11.0 log r(t + 150)

---------------------------------------------------------------------

The orbital elements are published on M.P.E.C. 2019-Q135.
The charts are made with StellaNavigator Ver.10 (AstroArts).
The magnitudes graphs are made with Comet for Windows.

---------------------------------------------------------------------

Copyright(C) Seiichi Yoshida (comet@aerith.net). All rights reserved.